Location: Unspecified
(44.0704°N, 88.6889°W)
Time: 19:34:59
(UTC+01:00)

Resurs 1-4 Rocket - Visible Passes

Search period start: 22 February 2018 00:00
Search period end: 04 March 2018 00:00
Orbit: 801 x 813 km, 98.5° (Epoch: 22 February)

Date Brightness Start Highest point End Pass type
(mag) Time Alt. Az. Time Alt. Az. Time Alt. Az.
01 Mar 4.9 09:38:35 10° N 09:38:40 10° N 09:38:40 10° N visible
02 Mar 5.0 09:13:53 10° NNE 09:13:54 10° NNE 09:13:54 10° NNE visible
03 Mar 4.6 10:30:11 10° NNW 10:30:13 10° NNW 10:30:13 10° NNW visible
